Frederick, OK

11:54 PM CDT on August 29, 2016 (GMT -0500)
Frederick Municipal

Weather History for KFDR - October, 2012

Change the Weather History Date:

Tuesday, October 9, 2012

  Actual Average (KLTS) Record (KLTS)
Temperature  
Mean Temperature 66 °F -  
Max Temperature 82 °F 76 °F 91 °F (2014)
Min Temperature 50 °F 54 °F 48 °F (1996)
Cooling Degree Days 1    
Growing Degree Days 16 (Base 50)    
Moisture  
Dew Point 47 °F    
Average Humidity 57    
Maximum Humidity 86    
Minimum Humidity 30    
Precipitation  
Precipitation 0.00 in - - ()
Sea Level Pressure  
Sea Level Pressure 29.87 in    
Wind  
Wind Speed 12 mph (South)    
Max Wind Speed 20 mph    
Max Gust Speed 26 mph    
Visibility 10 miles    
Events      
Averages and records for this station are not official NWS values.
T = Trace of Precipitation, MM = Missing Value Source: NWS Daily Summary

Daily Weather History Graph

Daily Weather History Graph

Search for Another Location

Airport or City:

Trip Planner

Search our weather history database for the weather conditions in past years. The results will help you decide how hot, cold, wet, or windy it might be!

Date:

Astronomy

Oct. 09, 2012 Rise Set
Actual Time 7:36 AM CDT 7:08 PM CDT
Civil Twilight 7:11 AM CDT 7:33 PM CDT
Nautical Twilight 6:42 AM CDT 8:02 PM CDT
Astronomical Twilight 6:13 AM CDT 8:31 PM CDT
Moon 1:30 AM CDT (10/9) 3:23 PM CDT (10/9)
Length of Visible Light 12h 21m
Length of Day
11h 31m
Last Quarter, 36% of the Moon is Illuminated
Oct 9
Last Quarter
Oct 15
New
Oct 21
First Quarter
Oct 29
Full
Nov 6
Last Quarter

Hourly Weather History & Observations

Time (CDT) Temp. Dew Point Humidity Pressure Visibility Wind Dir Wind Speed Gust Speed Precip Events Conditions
12:53 AM 51.1 °F 41.0 °F 68% 29.96 in 10.0 mi SSE 9.2 mph - N/A   Clear
1:53 AM 51.1 °F 41.0 °F 68% 29.94 in 10.0 mi SSE 10.4 mph - N/A   Clear
3:53 AM 51.1 °F 43.0 °F 74% 29.89 in 10.0 mi SSE 12.7 mph - N/A   Clear
4:53 AM 51.1 °F 44.1 °F 77% 29.88 in 10.0 mi SE 11.5 mph - N/A   Clear
5:53 AM 51.1 °F 45.0 °F 80% 29.87 in 10.0 mi SSE 15.0 mph - N/A   Clear
6:53 AM 50.0 °F 46.0 °F 86% 29.87 in 10.0 mi SSE 15.0 mph - N/A   Clear
7:53 AM 50.0 °F 46.0 °F 86% 29.87 in 10.0 mi SSE 12.7 mph - N/A   Clear
8:53 AM 54.0 °F 48.0 °F 80% 29.87 in 10.0 mi South 19.6 mph - N/A   Clear
9:53 AM 60.1 °F 50.0 °F 69% 29.87 in 10.0 mi South 17.3 mph - N/A   Clear
10:53 AM 66.0 °F 52.0 °F 60% 29.86 in 10.0 mi South 19.6 mph - N/A   Clear
11:53 AM 70.0 °F 52.0 °F 53% 29.83 in 10.0 mi SSW 18.4 mph 26.5 mph N/A   Clear
12:53 PM 73.0 °F 53.1 °F 49% 29.82 in 10.0 mi SW 13.8 mph 21.9 mph N/A   Clear
1:53 PM 77.0 °F 53.1 °F 43% 29.80 in 10.0 mi SSW 16.1 mph - N/A   Clear
2:53 PM 79.0 °F 51.1 °F 38% 29.78 in 10.0 mi WSW 9.2 mph - N/A   Clear
3:53 PM 81.0 °F 48.9 °F 33% 29.78 in 10.0 mi SW 6.9 mph - N/A   Clear
4:53 PM 82.9 °F 48.9 °F 31% 29.78 in 10.0 mi WSW 5.8 mph - N/A   Clear
5:53 PM 82.0 °F 48.0 °F 30% 29.80 in 10.0 mi North 5.8 mph - N/A   Clear
6:53 PM 79.0 °F 46.9 °F 32% 29.83 in 10.0 mi North 6.9 mph - N/A   Clear
7:53 PM 70.0 °F 45.0 °F 41% 29.86 in 10.0 mi NNE 9.2 mph - N/A   Clear
8:53 PM 66.9 °F 45.0 °F 45% 29.89 in 10.0 mi NE 9.2 mph - N/A   Clear
9:53 PM 62.1 °F 45.0 °F 53% 29.93 in 10.0 mi North 9.2 mph - N/A   Clear
10:53 PM 61.0 °F 45.0 °F 56% 29.96 in 10.0 mi NNE 10.4 mph - N/A   Clear
11:53 PM 59.0 °F 45.0 °F 60% 29.98 in 10.0 mi NNE 12.7 mph - N/A   Clear